Eden Prairie, MN

10:25 AM CDT on September 26, 2016 (GMT -0500)
Flying Cloud

Weather History for KFCM - February, 2013

Change the Weather History Date:

Thursday, February 14, 2013

  Actual Average Record
Temperature  
Mean Temperature 24 °F -  
Max Temperature 33 °F 27 °F 46 °F (2002)
Min Temperature 14 °F 13 °F -4 °F (2007)
Degree Days  
Heating Degree Days 41    
Moisture  
Dew Point 21 °F    
Average Humidity 76    
Maximum Humidity 93    
Minimum Humidity 47    
Precipitation  
Precipitation 0.01 in - - ()
Sea Level Pressure  
Sea Level Pressure 29.84 in    
Wind  
Wind Speed 10 mph (NNW)    
Max Wind Speed 18 mph    
Max Gust Speed 23 mph    
Visibility 7 miles    
Events Snow    
Averages and records for this station are not official NWS values.
T = Trace of Precipitation, MM = Missing Value Source: NWS Daily Summary

Daily Weather History Graph

Daily Weather History Graph

Search for Another Location

Airport or City:

Trip Planner

Search our weather history database for the weather conditions in past years. The results will help you decide how hot, cold, wet, or windy it might be!

Date:

Astronomy

Feb. 14, 2013 Rise Set
Actual Time 7:15 AM CST 5:41 PM CST
Civil Twilight 6:45 AM CST 6:11 PM CST
Nautical Twilight 6:11 AM CST 6:45 PM CST
Astronomical Twilight 5:37 AM CST 7:19 PM CST
Moon 9:03 AM CST (2/14) 11:00 PM CST (2/14)
Length of Visible Light 11h 25m
Length of Day
10h 25m
Waxing Crescent, 22% of the Moon is Illuminated
Feb 14
Waxing Crescent
Feb 17
First Quarter
Feb 25
Full
Mar 4
Last Quarter
Mar 11
New

Hourly Weather History & Observations

Time (CST) Temp. Windchill Dew Point Humidity Pressure Visibility Wind Dir Wind Speed Gust Speed Precip Events Conditions
12:03 AM 33.8 °F 27.0 °F 30.2 °F 87% 29.55 in 2.5 mi NNW 8.1 mph - 0.00 in Snow Light Snow
12:23 AM 33.8 °F 26.4 °F 32.0 °F 93% 29.56 in 1.8 mi North 9.2 mph - 0.00 in Snow Light Snow
12:49 AM 33.8 °F 25.3 °F 30.2 °F 87% 29.57 in 0.8 mi North 11.5 mph 18.4 mph 0.01 in Snow Light Snow
12:53 AM 33.1 °F 23.9 °F 30.9 °F 92% 29.60 in 0.8 mi North 12.7 mph - 0.01 in Snow Light Snow
1:07 AM 33.8 °F 26.4 °F 30.2 °F 87% 29.57 in 1.0 mi North 9.2 mph 17.3 mph 0.00 in Snow Light Snow
1:53 AM 33.1 °F 24.9 °F 30.0 °F 89% 29.64 in 1.2 mi North 10.4 mph - 0.00 in Snow Light Snow
2:28 AM 32.0 °F 23.0 °F 28.4 °F 87% 29.63 in 1.2 mi North 11.5 mph - 0.00 in Snow Light Snow
2:46 AM 32.0 °F 22.5 °F 28.4 °F 87% 29.65 in 2.5 mi North 12.7 mph - 0.00 in Snow Light Snow
2:53 AM 32.0 °F 22.1 °F 28.9 °F 88% 29.67 in 2.5 mi North 13.8 mph 19.6 mph 0.00 in Snow Light Snow
3:00 AM 32.0 °F 23.0 °F 28.4 °F 87% 29.64 in 3.0 mi North 11.5 mph 19.6 mph 0.00 in Snow Light Snow
3:22 AM 30.2 °F 20.8 °F 28.4 °F 93% 29.66 in 4.0 mi North 11.5 mph - 0.00 in Snow Light Snow
3:53 AM 30.9 °F 24.3 °F 28.0 °F 89% 29.71 in 9.0 mi NNW 6.9 mph - 0.00 in   Overcast
4:53 AM 28.9 °F 20.4 °F 26.1 °F 89% 29.75 in 10.0 mi NNW 9.2 mph - N/A   Clear
5:53 AM 27.0 °F 18.7 °F 24.1 °F 89% 29.78 in 10.0 mi NW 8.1 mph - N/A   Clear
6:53 AM 27.0 °F 18.7 °F 23.0 °F 85% 29.80 in 9.0 mi NW 8.1 mph - N/A   Mostly Cloudy
7:53 AM 27.0 °F 19.5 °F 24.1 °F 89% 29.83 in 8.0 mi NW 6.9 mph - N/A   Clear
8:53 AM 27.0 °F 18.7 °F 23.0 °F 85% 29.85 in 9.0 mi NNW 8.1 mph - N/A   Scattered Clouds
9:53 AM 28.0 °F 20.0 °F 23.0 °F 81% 29.86 in 10.0 mi NW 8.1 mph - N/A   Clear
10:53 AM 28.9 °F 20.4 °F 24.1 °F 82% 29.88 in 10.0 mi NNW 9.2 mph - N/A   Clear
11:49 AM 28.4 °F 19.7 °F 24.8 °F 86% 29.87 in 8.0 mi WNW 9.2 mph - N/A   Overcast
11:53 AM 28.9 °F 19.8 °F 24.1 °F 82% 29.90 in 8.0 mi NNW 10.4 mph - N/A   Overcast
12:53 PM 28.0 °F 17.0 °F 21.0 °F 75% 29.91 in 10.0 mi NNW 13.8 mph - N/A   Mostly Cloudy
1:53 PM 28.0 °F 17.5 °F 21.0 °F 75% 29.93 in 10.0 mi NNW 12.7 mph - N/A   Mostly Cloudy
2:53 PM 28.9 °F 18.6 °F 18.0 °F 64% 29.95 in 10.0 mi NNW 12.7 mph - N/A   Clear
3:53 PM 28.0 °F 15.3 °F 12.0 °F 51% 29.99 in 10.0 mi NNW 18.4 mph - N/A   Clear
4:53 PM 26.1 °F 15.0 °F 8.1 °F 47% 30.04 in 10.0 mi NNW 12.7 mph 23.0 mph N/A   Clear
5:53 PM 23.0 °F 12.4 °F 6.1 °F 48% 30.08 in 10.0 mi NNW 10.4 mph 20.7 mph N/A   Clear
6:53 PM 21.9 °F 10.4 °F 5.0 °F 48% 30.11 in 10.0 mi NNW 11.5 mph - N/A   Clear
7:53 PM 21.0 °F 10.6 °F 5.0 °F 50% 30.14 in 10.0 mi NNW 9.2 mph - N/A   Clear
8:53 PM 19.0 °F 9.0 °F 3.9 °F 52% 30.17 in 10.0 mi NW 8.1 mph - N/A   Clear
9:53 PM 18.0 °F 5.4 °F 3.9 °F 54% 30.18 in 10.0 mi NW 11.5 mph - N/A   Clear
10:53 PM 15.1 °F 4.2 °F 3.9 °F 61% 30.19 in 10.0 mi NW 8.1 mph - N/A   Clear
11:53 PM 14.0 °F 3.9 °F 3.0 °F 62% 30.21 in 10.0 mi WNW 6.9 mph - N/A   Clear